WXM80 ListenWXM80 Stop

You find our weather info also at:

UK Metoffice

WeatherCloud

Weather Underground

Northeastern Weather Network

AWEKAS

Citizen Weather Observer Program (CWOP)

HAMweather, WeatherForYou, PWS Weather


Weather Underground History page Text

Daily Summary for June 3, 2016 Units:  English    Metric   Both
« Previous Day
Next Day »
Daily Weekly Monthly Yearly Custom
  High: Low: Average:
Temperature: 68.4 °F 60.7 °F 64.1 °F
Dew Point: 64.4 °F 58.7 °F 61.2 °F
Humidity: 96 % 82 % 91 %
Wind Speed: 3.9 mph 0.0 mph 0.4 mph
Wind Gust: 4.0 mph - -
Wind:- - ENE
Pressure: 30.09 in 29.99 in -
Precipitation: 0.00 in    
Historical Graphs
 
 
Tabular Data for June 3, 2016
Time Temperature Dew Point Pressure Wind Wind Speed Wind Gust Humidity Rainfall Rate (Hourly)
00:01 62.2 °F 58.9 °F 30.09 in Calm     89 % 0.00 in
00:06 62.2 °F 59.2 °F 30.09 in SE 0.2 mph 1.2 mph 90 % 0.00 in
00:11 62.2 °F 59.2 °F 30.09 in Calm     90 % 0.00 in
00:17 62.2 °F 59.2 °F 30.09 in East 1.1 mph 2.0 mph 90 % 0.00 in
00:22 62.1 °F 59.1 °F 30.09 in East 0.1 mph 3.5 mph 90 % 0.00 in
00:27 62.1 °F 59.1 °F 30.09 in East 1.0 mph 2.3 mph 90 % 0.00 in
00:32 62.0 °F 59.0 °F 30.09 in NE 0.8 mph 2.3 mph 90 % 0.00 in
00:37 61.9 °F 58.9 °F 30.08 in Calm   1.2 mph 90 % 0.00 in
00:42 61.9 °F 58.9 °F 30.08 in Calm     90 % 0.00 in
00:47 61.8 °F 58.8 °F 30.08 in Calm     90 % 0.00 in
00:52 61.8 °F 58.8 °F 30.08 in ENE 0.3 mph 1.2 mph 90 % 0.00 in
01:02 61.7 °F 58.7 °F 30.08 in ENE 0.5 mph 2.3 mph 90 % 0.00 in
01:08 61.7 °F 59.0 °F 30.07 in ENE 0.2 mph 2.3 mph 91 % 0.00 in
01:13 61.7 °F 59.0 °F 30.07 in Calm     91 % 0.00 in
01:18 61.7 °F 59.0 °F 30.07 in Calm     91 % 0.00 in
01:23 61.7 °F 59.0 °F 30.07 in Calm   1.0 mph 91 % 0.00 in
01:28 61.7 °F 59.0 °F 30.07 in Calm     91 % 0.00 in
01:38 61.7 °F 59.0 °F 30.07 in Calm     91 % 0.00 in
01:43 61.7 °F 59.0 °F 30.07 in Calm   1.2 mph 91 % 0.00 in
01:48 61.7 °F 59.0 °F 30.06 in ENE 0.1 mph 1.2 mph 91 % 0.00 in
01:53 61.7 °F 59.0 °F 30.06 in Calm   1.2 mph 91 % 0.00 in
01:59 61.7 °F 59.0 °F 30.06 in Calm     91 % 0.00 in
02:04 61.7 °F 59.0 °F 30.06 in Calm     91 % 0.00 in
02:09 61.7 °F 59.0 °F 30.06 in Calm     91 % 0.00 in
02:14 61.7 °F 59.4 °F 30.06 in Calm     92 % 0.00 in
02:19 61.6 °F 59.3 °F 30.06 in Calm   1.2 mph 92 % 0.00 in
02:24 61.6 °F 59.3 °F 30.06 in Calm   1.2 mph 92 % 0.00 in
02:29 61.6 °F 58.9 °F 30.06 in Calm     91 % 0.00 in
02:34 61.6 °F 59.3 °F 30.06 in Calm     92 % 0.00 in
02:39 61.6 °F 59.3 °F 30.05 in ENE 0.5 mph 3.5 mph 92 % 0.00 in
02:44 61.6 °F 59.3 °F 30.05 in Calm     92 % 0.00 in
02:50 61.6 °F 58.9 °F 30.06 in ENE 0.5 mph 2.3 mph 91 % 0.00 in
02:55 61.6 °F 59.3 °F 30.06 in Calm   1.2 mph 92 % 0.00 in
03:00 61.6 °F 59.3 °F 30.05 in Calm   1.2 mph 92 % 0.00 in
03:05 61.6 °F 59.3 °F 30.05 in Calm     92 % 0.00 in
03:10 61.6 °F 59.3 °F 30.05 in Calm     92 % 0.00 in
03:15 61.6 °F 59.3 °F 30.05 in Calm     92 % 0.00 in
03:20 61.6 °F 59.3 °F 30.05 in NNE 2.9 mph 3.5 mph 92 % 0.00 in
03:25 61.6 °F 59.3 °F 30.05 in Calm     92 % 0.00 in
03:30 61.5 °F 59.2 °F 30.05 in NNE 0.1 mph 2.3 mph 92 % 0.00 in
03:35 61.5 °F 59.2 °F 30.05 in NNE 0.6 mph 1.2 mph 92 % 0.00 in
03:41 61.5 °F 59.2 °F 30.05 in NNE 0.3 mph 1.2 mph 92 % 0.00 in
03:46 61.5 °F 59.2 °F 30.04 in NNE 0.3 mph 1.2 mph 92 % 0.00 in
03:51 61.5 °F 59.2 °F 30.05 in NE 1.0 mph 2.3 mph 92 % 0.00 in
03:56 61.4 °F 59.1 °F 30.05 in NE 0.5 mph 2.3 mph 92 % 0.00 in
04:01 61.3 °F 59.0 °F 30.05 in NE 0.8 mph 2.3 mph 92 % 0.00 in
04:06 61.3 °F 59.0 °F 30.05 in Calm   1.2 mph 92 % 0.00 in
04:11 61.3 °F 59.3 °F 30.05 in Calm     93 % 0.00 in
04:16 61.2 °F 59.2 °F 30.05 in NE 0.3 mph 1.2 mph 93 % 0.00 in
04:21 61.1 °F 59.1 °F 30.05 in NE 0.7 mph 1.2 mph 93 % 0.00 in
04:27 61.0 °F 59.0 °F 30.05 in NE 0.4 mph   93 % 0.00 in
04:32 61.0 °F 59.0 °F 30.05 in NE 0.2 mph 1.2 mph 93 % 0.00 in
04:37 60.9 °F 58.9 °F 30.04 in NE 0.1 mph 1.2 mph 93 % 0.00 in
04:42 60.9 °F 59.2 °F 30.05 in Calm     94 % 0.00 in
04:47 60.9 °F 59.2 °F 30.04 in Calm   1.0 mph 94 % 0.00 in
04:52 60.9 °F 59.2 °F 30.04 in Calm     94 % 0.00 in
04:57 60.9 °F 59.2 °F 30.05 in Calm     94 % 0.00 in
05:02 60.9 °F 59.2 °F 30.05 in Calm   1.2 mph 94 % 0.00 in
05:07 60.8 °F 59.1 °F 30.04 in Calm     94 % 0.00 in
05:12 60.8 °F 59.1 °F 30.04 in Calm     94 % 0.00 in
05:18 60.8 °F 59.1 °F 30.05 in Calm     94 % 0.00 in
05:23 60.8 °F 59.1 °F 30.05 in Calm     94 % 0.00 in
05:28 60.8 °F 59.4 °F 30.05 in Calm     95 % 0.00 in
05:33 60.8 °F 59.1 °F 30.05 in Calm     94 % 0.00 in
05:38 60.8 °F 59.1 °F 30.05 in Calm     94 % 0.00 in
05:43 60.7 °F 59.3 °F 30.05 in Calm     95 % 0.00 in
05:48 60.7 °F 59.3 °F 30.05 in Calm     95 % 0.00 in
05:53 60.7 °F 59.3 °F 30.05 in Calm     95 % 0.00 in
05:58 60.7 °F 59.3 °F 30.05 in Calm     95 % 0.00 in
06:03 60.7 °F 59.3 °F 30.06 in Calm     95 % 0.00 in
06:09 60.7 °F 59.3 °F 30.06 in Calm     95 % 0.00 in
06:14 60.7 °F 59.3 °F 30.06 in Calm     95 % 0.00 in
06:19 60.7 °F 59.3 °F 30.05 in NE 0.1 mph   95 % 0.00 in
06:24 60.7 °F 59.3 °F 30.05 in Calm     95 % 0.00 in
06:29 60.7 °F 59.3 °F 30.05 in NE 0.1 mph   95 % 0.00 in
06:39 60.7 °F 59.3 °F 30.06 in Calm     95 % 0.00 in
06:44 60.7 °F 59.3 °F 30.06 in Calm     95 % 0.00 in
06:54 60.8 °F 59.4 °F 30.06 in Calm     95 % 0.00 in
07:00 60.9 °F 59.5 °F 30.06 in Calm     95 % 0.00 in
07:05 60.9 °F 59.5 °F 30.06 in Calm     95 % 0.00 in
07:10 60.9 °F 59.8 °F 30.06 in Calm   1.2 mph 96 % 0.00 in
07:15 61.0 °F 59.9 °F 30.06 in Calm     96 % 0.00 in
07:20 61.1 °F 60.0 °F 30.06 in Calm     96 % 0.00 in
07:25 61.1 °F 60.0 °F 30.06 in Calm   1.2 mph 96 % 0.00 in
07:30 61.1 °F 60.0 °F 30.06 in Calm     96 % 0.00 in
07:35 61.2 °F 60.1 °F 30.06 in Calm   1.2 mph 96 % 0.00 in
07:40 61.2 °F 60.1 °F 30.06 in Calm   1.2 mph 96 % 0.00 in
07:45 61.3 °F 60.2 °F 30.06 in Calm   1.2 mph 96 % 0.00 in
07:50 61.3 °F 59.9 °F 30.06 in Calm   1.2 mph 95 % 0.00 in
07:55 61.3 °F 59.9 °F 30.06 in Calm     95 % 0.00 in
08:01 61.4 °F 60.2 °F 30.06 in NE 0.1 mph 1.2 mph 96 % 0.00 in
08:06 61.6 °F 60.4 °F 30.06 in Calm   1.2 mph 96 % 0.00 in
08:11 61.7 °F 60.5 °F 30.06 in Calm     96 % 0.00 in
08:16 61.8 °F 60.6 °F 30.06 in Calm   1.2 mph 96 % 0.00 in
08:21 61.8 °F 60.6 °F 30.06 in Calm     96 % 0.00 in
08:26 61.9 °F 60.7 °F 30.06 in Calm     96 % 0.00 in
08:31 62.0 °F 60.6 °F 30.06 in Calm   1.2 mph 95 % 0.00 in
08:36 62.1 °F 60.7 °F 30.06 in Calm     95 % 0.00 in
08:41 62.2 °F 60.8 °F 30.06 in Calm     95 % 0.00 in
08:46 62.3 °F 60.8 °F 30.06 in Calm     95 % 0.00 in
08:52 62.3 °F 60.8 °F 30.06 in Calm   1.0 mph 95 % 0.00 in
08:57 62.4 °F 60.9 °F 30.06 in Calm     95 % 0.00 in
09:02 62.5 °F 61.0 °F 30.06 in Calm     95 % 0.00 in
09:07 62.6 °F 60.8 °F 30.06 in Calm     94 % 0.00 in
09:12 62.6 °F 60.8 °F 30.06 in NE 0.6 mph 1.2 mph 94 % 0.00 in
09:17 62.6 °F 60.8 °F 30.05 in NE 0.1 mph 1.2 mph 94 % 0.00 in
09:22 62.7 °F 60.9 °F 30.05 in Calm     94 % 0.00 in
09:27 62.8 °F 61.0 °F 30.05 in Calm   1.0 mph 94 % 0.00 in
09:32 63.0 °F 61.2 °F 30.05 in Calm     94 % 0.00 in
09:37 63.2 °F 61.4 °F 30.05 in Calm     94 % 0.00 in
09:43 63.3 °F 61.2 °F 30.05 in Calm   1.2 mph 93 % 0.00 in
09:48 63.5 °F 61.4 °F 30.05 in NE 0.2 mph 1.2 mph 93 % 0.00 in
09:53 63.7 °F 61.6 °F 30.05 in Calm     93 % 0.00 in
09:58 63.9 °F 61.8 °F 30.05 in NE 0.8 mph 2.3 mph 93 % 0.00 in
10:03 64.0 °F 61.6 °F 30.05 in NE 0.1 mph 1.2 mph 92 % 0.00 in
10:08 64.1 °F 61.7 °F 30.05 in NE 1.6 mph 3.0 mph 92 % 0.00 in
10:13 64.2 °F 61.5 °F 30.05 in NE 0.8 mph 1.2 mph 91 % 0.00 in
10:18 64.2 °F 61.5 °F 30.05 in NE 0.7 mph 2.0 mph 91 % 0.00 in
10:23 64.2 °F 61.2 °F 30.05 in NE 1.1 mph 2.3 mph 90 % 0.00 in
10:29 64.2 °F 61.2 °F 30.05 in NE 0.5 mph 2.3 mph 90 % 0.00 in
10:34 64.3 °F 61.6 °F 30.05 in NE 1.2 mph 3.5 mph 91 % 0.00 in
10:39 64.4 °F 61.4 °F 30.05 in NE 1.4 mph 3.5 mph 90 % 0.00 in
10:44 64.7 °F 61.7 °F 30.05 in NE 1.7 mph 3.5 mph 90 % 0.00 in
10:54 65.6 °F 62.3 °F 30.05 in NE 0.9 mph 2.3 mph 89 % 0.00 in
10:59 66.0 °F 62.3 °F 30.05 in North 0.5 mph 2.0 mph 88 % 0.00 in
11:04 66.5 °F 62.8 °F 30.05 in NNE 0.6 mph 2.3 mph 88 % 0.00 in
11:14 67.4 °F 63.1 °F 30.05 in ENE 1.0 mph 2.3 mph 86 % 0.00 in
11:20 68.1 °F 63.1 °F 30.04 in ENE 2.3 mph 3.5 mph 84 % 0.00 in
11:25 68.4 °F 63.0 °F 30.05 in NE 0.6 mph 3.5 mph 83 % 0.00 in
11:30 68.4 °F 62.7 °F 30.05 in NE 1.3 mph 2.3 mph 82 % 0.00 in
11:35 68.2 °F 62.5 °F 30.05 in NE 1.2 mph 2.3 mph 82 % 0.00 in
11:40 67.9 °F 62.2 °F 30.05 in NE 2.7 mph 4.0 mph 82 % 0.00 in
11:45 67.5 °F 62.2 °F 30.04 in ENE 1.3 mph 2.3 mph 83 % 0.00 in
11:50 67.0 °F 62.0 °F 30.04 in ENE 2.2 mph 3.0 mph 84 % 0.00 in
11:55 66.8 °F 62.1 °F 30.05 in ENE 2.0 mph 3.5 mph 85 % 0.00 in
12:00 66.7 °F 62.0 °F 30.04 in ENE 0.9 mph 2.3 mph 85 % 0.00 in
12:05 66.5 °F 61.8 °F 30.04 in ENE 2.3 mph 4.0 mph 85 % 0.00 in
12:11 66.6 °F 62.3 °F 30.04 in ENE 1.1 mph 3.5 mph 86 % 0.00 in
12:16 66.8 °F 62.5 °F 30.04 in ENE 0.2 mph 3.5 mph 86 % 0.00 in
12:26 67.3 °F 63.0 °F 30.04 in ENE 0.5 mph 1.2 mph 86 % 0.00 in
12:31 67.6 °F 63.3 °F 30.04 in Calm     86 % 0.00 in
12:36 67.6 °F 62.6 °F 30.04 in ENE 1.4 mph 3.5 mph 84 % 0.00 in
12:41 67.5 °F 62.5 °F 30.04 in ENE 1.1 mph 2.3 mph 84 % 0.00 in
12:51 67.3 °F 63.0 °F 30.04 in NE 1.1 mph 2.3 mph 86 % 0.00 in
12:56 67.3 °F 63.3 °F 30.04 in NNE 2.2 mph 4.0 mph 87 % 0.00 in
13:02 67.3 °F 63.0 °F 30.04 in NNE 3.9 mph 4.0 mph 86 % 0.00 in
13:07 67.1 °F 62.4 °F 30.04 in NE 1.7 mph 3.5 mph 85 % 0.00 in
13:12 67.0 °F 62.3 °F 30.04 in NE 1.1 mph 3.5 mph 85 % 0.00 in
13:17 67.0 °F 62.7 °F 30.04 in NE 1.7 mph 3.5 mph 86 % 0.00 in
13:22 67.1 °F 62.4 °F 30.04 in NE 1.3 mph 3.5 mph 85 % 0.00 in
13:27 67.1 °F 63.1 °F 30.04 in North 1.7 mph 3.5 mph 87 % 0.00 in
13:32 67.1 °F 62.8 °F 30.04 in ENE 1.2 mph 2.3 mph 86 % 0.00 in
13:37 67.0 °F 62.0 °F 30.04 in ENE 1.0 mph 2.3 mph 84 % 0.00 in
13:47 66.5 °F 62.2 °F 30.04 in ENE 0.5 mph 2.3 mph 86 % 0.00 in
13:53 66.2 °F 61.9 °F 30.04 in ENE 1.1 mph 3.5 mph 86 % 0.00 in
13:58 65.9 °F 61.6 °F 30.04 in ENE 0.8 mph 2.3 mph 86 % 0.00 in
14:03 65.8 °F 61.8 °F 30.03 in Calm   1.0 mph 87 % 0.00 in
14:08 65.9 °F 62.6 °F 30.03 in Calm   2.0 mph 89 % 0.00 in
14:13 65.9 °F 61.9 °F 30.03 in ENE 0.7 mph 2.3 mph 87 % 0.00 in
14:18 66.0 °F 62.0 °F 30.03 in ENE 1.9 mph 3.5 mph 87 % 0.00 in
14:23 66.0 °F 62.0 °F 30.03 in Calm     87 % 0.00 in
14:28 66.1 °F 62.1 °F 30.03 in Calm   1.2 mph 87 % 0.00 in
14:33 66.0 °F 61.7 °F 30.03 in ENE 1.0 mph 3.5 mph 86 % 0.00 in
14:38 65.8 °F 61.5 °F 30.03 in ENE 1.5 mph 3.5 mph 86 % 0.00 in
14:49 65.6 °F 61.6 °F 30.03 in NE 1.1 mph 2.3 mph 87 % 0.00 in
14:54 65.5 °F 61.5 °F 30.03 in NE 0.7 mph 2.3 mph 87 % 0.00 in
14:59 65.4 °F 61.4 °F 30.03 in NE 0.3 mph 1.2 mph 87 % 0.00 in
15:04 65.3 °F 61.3 °F 30.02 in NE 0.1 mph 1.2 mph 87 % 0.00 in
15:09 65.2 °F 61.2 °F 30.02 in NE 0.9 mph 2.3 mph 87 % 0.00 in
15:14 65.1 °F 61.5 °F 30.02 in NE 0.1 mph 1.2 mph 88 % 0.00 in
15:19 64.9 °F 61.3 °F 30.02 in NE 0.1 mph 1.2 mph 88 % 0.00 in
15:24 64.8 °F 61.5 °F 30.02 in Calm   2.3 mph 89 % 0.00 in
15:29 64.8 °F 61.8 °F 30.02 in Calm     90 % 0.00 in
15:35 64.8 °F 61.8 °F 30.02 in Calm   2.3 mph 90 % 0.00 in
15:40 64.8 °F 62.1 °F 30.01 in Calm     91 % 0.00 in
15:45 64.9 °F 62.2 °F 30.02 in Calm     91 % 0.00 in
15:50 65.0 °F 62.6 °F 30.02 in NE 0.3 mph 2.3 mph 92 % 0.00 in
15:55 65.1 °F 62.7 °F 30.02 in Calm   2.3 mph 92 % 0.00 in
16:00 65.2 °F 62.8 °F 30.01 in Calm   1.2 mph 92 % 0.00 in
16:05 65.3 °F 62.9 °F 30.01 in NE 0.2 mph 1.2 mph 92 % 0.00 in
16:10 65.4 °F 62.7 °F 30.02 in NE 0.1 mph 1.2 mph 91 % 0.00 in
16:15 65.6 °F 63.2 °F 30.02 in Calm     92 % 0.00 in
16:20 65.9 °F 63.8 °F 30.02 in NE 0.3 mph   93 % 0.00 in
16:26 66.1 °F 63.7 °F 30.02 in Calm     92 % 0.00 in
16:36 66.6 °F 63.6 °F 30.02 in NE 0.7 mph 2.3 mph 90 % 0.00 in
16:41 66.6 °F 63.3 °F 30.01 in NE 1.0 mph 2.3 mph 89 % 0.00 in
16:46 66.7 °F 63.4 °F 30.01 in Calm   1.2 mph 89 % 0.00 in
16:51 66.7 °F 63.4 °F 30.01 in NE 0.4 mph 1.2 mph 89 % 0.00 in
16:56 66.7 °F 63.4 °F 30.01 in NE 0.3 mph 2.3 mph 89 % 0.00 in
17:01 66.8 °F 63.5 °F 30.01 in NE 1.1 mph 2.3 mph 89 % 0.00 in
17:06 67.0 °F 64.0 °F 30.01 in Calm   1.2 mph 90 % 0.00 in
17:11 67.1 °F 63.7 °F 30.00 in NE 1.3 mph 3.5 mph 89 % 0.00 in
17:22 67.4 °F 64.0 °F 30.01 in North 3.0 mph 3.5 mph 89 % 0.00 in
17:27 67.4 °F 63.7 °F 30.01 in North 1.5 mph 2.3 mph 88 % 0.00 in
17:32 67.4 °F 63.4 °F 30.01 in North 2.1 mph 3.5 mph 87 % 0.00 in
17:37 67.3 °F 63.6 °F 30.01 in North 1.2 mph 2.3 mph 88 % 0.00 in
17:47 67.2 °F 63.2 °F 30.01 in North 0.6 mph 2.3 mph 87 % 0.00 in
17:52 67.2 °F 63.5 °F 30.00 in North 0.5 mph 1.2 mph 88 % 0.00 in
18:02 67.0 °F 63.0 °F 30.00 in Calm   1.2 mph 87 % 0.00 in
18:08 67.1 °F 63.4 °F 30.00 in North 0.1 mph 1.2 mph 88 % 0.00 in
18:13 67.3 °F 64.3 °F 30.00 in North 0.1 mph 1.2 mph 90 % 0.00 in
18:18 67.5 °F 64.1 °F 29.99 in Calm     89 % 0.00 in
18:23 67.6 °F 64.2 °F 30.00 in Calm   1.2 mph 89 % 0.00 in
18:28 67.8 °F 64.4 °F 30.00 in North 1.7 mph 2.3 mph 89 % 0.00 in
18:33 67.8 °F 64.1 °F 30.01 in North 0.6 mph 2.3 mph 88 % 0.00 in
18:38 67.8 °F 63.8 °F 30.01 in North 1.8 mph 3.5 mph 87 % 0.00 in
18:43 67.7 °F 63.7 °F 30.01 in Calm     87 % 0.00 in
18:48 67.7 °F 63.4 °F 30.01 in Calm     86 % 0.00 in
18:53 67.5 °F 63.2 °F 30.01 in Calm     86 % 0.00 in
18:59 67.3 °F 63.0 °F 30.01 in Calm     86 % 0.00 in
19:04 67.1 °F 63.1 °F 30.01 in Calm     87 % 0.00 in
19:09 66.9 °F 62.9 °F 30.01 in Calm     87 % 0.00 in
19:14 66.8 °F 62.8 °F 30.01 in Calm     87 % 0.00 in
19:19 66.7 °F 63.0 °F 30.01 in Calm     88 % 0.00 in
19:24 66.6 °F 62.9 °F 30.01 in Calm     88 % 0.00 in
19:29 66.5 °F 63.2 °F 30.00 in Calm     89 % 0.00 in
19:34 66.4 °F 63.1 °F 30.01 in Calm     89 % 0.00 in
19:39 66.4 °F 63.1 °F 30.00 in Calm     89 % 0.00 in
19:44 66.4 °F 63.1 °F 30.00 in Calm     89 % 0.00 in
19:50 66.3 °F 63.0 °F 30.00 in Calm     89 % 0.00 in
19:55 66.3 °F 63.3 °F 30.00 in Calm     90 % 0.00 in
20:00 66.3 °F 63.3 °F 30.00 in Calm     90 % 0.00 in
20:05 66.3 °F 63.3 °F 30.00 in Calm     90 % 0.00 in
20:10 66.4 °F 63.7 °F 30.00 in Calm     91 % 0.00 in
20:15 66.4 °F 63.7 °F 30.00 in Calm   1.0 mph 91 % 0.00 in
20:20 66.4 °F 63.7 °F 30.00 in North 0.4 mph 2.3 mph 91 % 0.00 in
20:25 66.4 °F 63.7 °F 30.00 in Calm     91 % 0.00 in
20:30 66.4 °F 63.7 °F 30.00 in Calm     91 % 0.00 in
20:35 66.4 °F 63.7 °F 29.99 in Calm     91 % 0.00 in
20:41 66.3 °F 63.6 °F 29.99 in Calm     91 % 0.00 in
20:46 66.3 °F 63.6 °F 29.99 in Calm   1.0 mph 91 % 0.00 in
20:51 66.2 °F 63.5 °F 30.00 in Calm     91 % 0.00 in
20:56 66.1 °F 63.1 °F 30.00 in Calm     90 % 0.00 in
21:01 66.0 °F 63.0 °F 30.00 in North 0.4 mph 2.3 mph 90 % 0.00 in
21:06 65.9 °F 62.9 °F 30.00 in Calm     90 % 0.00 in
21:11 65.8 °F 62.8 °F 30.00 in Calm     90 % 0.00 in
21:16 65.7 °F 62.7 °F 30.00 in North 0.1 mph 1.0 mph 90 % 0.00 in
21:21 65.7 °F 63.0 °F 30.00 in Calm     91 % 0.00 in
21:26 65.5 °F 62.5 °F 30.00 in Calm     90 % 0.00 in
21:32 65.4 °F 62.4 °F 30.00 in Calm     90 % 0.00 in
21:37 65.3 °F 62.3 °F 30.00 in Calm     90 % 0.00 in
21:42 65.1 °F 62.1 °F 30.00 in North 0.5 mph 2.0 mph 90 % 0.00 in
21:47 65.0 °F 62.0 °F 30.01 in SE 1.6 mph 3.5 mph 90 % 0.00 in
21:52 64.8 °F 62.1 °F 30.01 in Calm     91 % 0.00 in
21:57 64.7 °F 61.7 °F 30.02 in Calm   1.2 mph 90 % 0.00 in
22:02 64.5 °F 61.8 °F 30.02 in Calm     91 % 0.00 in
22:07 64.4 °F 61.7 °F 30.02 in South 0.2 mph 2.3 mph 91 % 0.00 in
22:12 64.3 °F 61.6 °F 30.02 in Calm     91 % 0.00 in
22:17 64.1 °F 61.4 °F 30.02 in Calm     91 % 0.00 in
22:23 64.0 °F 61.3 °F 30.02 in Calm     91 % 0.00 in
22:28 63.9 °F 61.2 °F 30.02 in South 0.1 mph 1.2 mph 91 % 0.00 in
22:33 63.7 °F 61.0 °F 30.02 in Calm     91 % 0.00 in
22:38 63.6 °F 60.9 °F 30.02 in South 0.5 mph 2.3 mph 91 % 0.00 in
22:43 63.5 °F 60.8 °F 30.02 in Calm   1.2 mph 91 % 0.00 in
22:48 63.4 °F 60.7 °F 30.02 in Calm     91 % 0.00 in
22:53 63.3 °F 60.9 °F 30.02 in Calm     92 % 0.00 in
22:58 63.2 °F 60.8 °F 30.02 in Calm     92 % 0.00 in
23:08 63.1 °F 60.7 °F 30.02 in Calm     92 % 0.00 in
23:14 63.0 °F 60.6 °F 30.02 in Calm     92 % 0.00 in
23:19 62.9 °F 60.5 °F 30.02 in Calm     92 % 0.00 in
23:24 62.9 °F 60.8 °F 30.02 in South 0.1 mph 1.2 mph 93 % 0.00 in
23:34 62.9 °F 60.8 °F 30.02 in Calm     93 % 0.00 in
23:44 62.8 °F 61.0 °F 30.02 in South 0.8 mph 3.0 mph 94 % 0.00 in
23:49 62.8 °F 61.0 °F 30.02 in SW 0.9 mph 3.5 mph 94 % 0.00 in
23:54 62.8 °F 61.0 °F 30.02 in Calm     94 % 0.00 in
Crab Meadow Weather
Compliments of Weather Underground - 2.75 mb

Script developed by  Jim McMurry - jmcmurry@mwt.net Adapted for the template by  Wim van der Kuil - Leuven-Template.eu

Weather Terms: Flood Warning (river flood)- A warning for specific communities or areas along a river where flooding is imminent or occurring. Flood warnings normally give specific crest forecasts.